Ceredo, WV

5:24 PM EDT on August 28, 2016 (GMT -0400)
Tri-State / Ferguson

Weather History for KHTS - May, 2012

Change the Weather History Date:

Monday, May 28, 2012

  Actual Average Record
Temperature  
Mean Temperature 81 °F 67 °F  
Max Temperature 91 °F 78 °F 95 °F (1941)
Min Temperature 71 °F 56 °F 37 °F (1994)
Degree Days  
Heating Degree Days 0 2  
Month to date heating degree days 34 108  
Since 1 July heating degree days 3648 4496  
Cooling Degree Days 16 4  
Month to date cooling degree days 139 68  
Year to date cooling degree days 196 100  
Growing Degree Days 32 (Base 50)    
Moisture  
Dew Point 67 °F    
Average Humidity 69    
Maximum Humidity 93    
Minimum Humidity 44    
Precipitation  
Precipitation 0.00 in 0.16 in 3.73 in (1990)
Month to date precipitation 3.68 4.21  
Year to date precipitation 13.38 17.59  
Snow  
Snow 0.00 in - - ()
Month to date snowfall 0.0  
Since 1 September snowfall 5.5  
Snow Depth 0.00 in    
Sea Level Pressure  
Sea Level Pressure 29.95 in    
Wind  
Wind Speed 4 mph (SSE)    
Max Wind Speed 12 mph    
Max Gust Speed 16 mph    
Visibility 9 miles    
Events      
T = Trace of Precipitation, MM = Missing Value Source: NWS Daily Summary

Daily Weather History Graph

Daily Weather History Graph

Search for Another Location

Airport or City:

Trip Planner

Search our weather history database for the weather conditions in past years. The results will help you decide how hot, cold, wet, or windy it might be!

Date:

Astronomy

May. 28, 2012 Rise Set
Actual Time 6:09 AM EDT 8:45 PM EDT
Civil Twilight 5:39 AM EDT 9:16 PM EDT
Nautical Twilight 5:00 AM EDT 9:55 PM EDT
Astronomical Twilight 4:17 AM EDT 10:38 PM EDT
Moon 1:14 PM EDT 1:25 AM EDT
Length of Visible Light 15h 37m
Length of Day
14h 35m
Waxing Crescent, 48% of the Moon is Illuminated
May 28
Waxing Crescent
May 28
First Quarter
Jun 4
Full
Jun 11
Last Quarter
Jun 19
New

Hourly Weather History & Observations

Time (EDT) Temp. Heat Index Dew Point Humidity Pressure Visibility Wind Dir Wind Speed Gust Speed Precip Events Conditions
12:51 AM 73.9 °F - 72.0 °F 93% 29.99 in 3.0 mi East 3.5 mph - N/A   Clear
1:51 AM 73.0 °F - 72.0 °F 96% 29.98 in 2.5 mi East 3.5 mph - N/A   Clear
2:12 AM 73.4 °F - 71.6 °F 94% 30.01 in 3.0 mi ESE 4.6 mph - N/A   Clear
2:51 AM 73.0 °F - 71.1 °F 93% 29.97 in 4.0 mi SE 3.5 mph - N/A   Clear
3:51 AM 73.9 °F - 66.9 °F 79% 29.96 in 10.0 mi SSE 5.8 mph - N/A   Clear
4:51 AM 73.0 °F - 64.0 °F 73% 29.96 in 10.0 mi SSE 3.5 mph - N/A   Clear
5:51 AM 73.0 °F - 63.0 °F 71% 29.96 in 10.0 mi South 5.8 mph - N/A   Clear
6:51 AM 73.0 °F - 63.0 °F 71% 29.99 in 10.0 mi South 5.8 mph - N/A   Clear
7:51 AM 73.9 °F - 64.0 °F 71% 30.00 in 10.0 mi South 3.5 mph - N/A   Clear
8:51 AM 75.9 °F - 64.9 °F 69% 30.02 in 10.0 mi South 4.6 mph - N/A   Clear
9:51 AM 80.1 °F 81.9 °F 64.9 °F 60% 30.02 in 10.0 mi SSW 11.5 mph - N/A   Clear
10:51 AM 82.0 °F 84.1 °F 66.0 °F 58% 30.01 in 10.0 mi SW 6.9 mph - N/A   Clear
11:51 AM 84.9 °F 87.6 °F 66.9 °F 55% 29.99 in 10.0 mi SSW 6.9 mph - N/A   Clear
12:51 PM 86.0 °F 88.8 °F 66.9 °F 53% 29.99 in 10.0 mi SW 5.8 mph - N/A   Clear
1:51 PM 89.1 °F 92.9 °F 68.0 °F 50% 29.97 in 10.0 mi Variable 3.5 mph - N/A   Scattered Clouds
2:51 PM 89.1 °F 92.1 °F 66.9 °F 48% 29.94 in 10.0 mi SSE 6.9 mph - N/A   Scattered Clouds
3:51 PM 90.0 °F 92.4 °F 66.0 °F 45% 29.92 in 10.0 mi SSW 5.8 mph - N/A   Partly Cloudy
4:51 PM 89.1 °F 91.0 °F 64.9 °F 45% 29.91 in 10.0 mi South 6.9 mph - N/A   Partly Cloudy
5:51 PM 88.0 °F 90.7 °F 66.9 °F 49% 29.90 in 10.0 mi South 4.6 mph - N/A   Clear
6:51 PM 87.1 °F 89.9 °F 66.9 °F 51% 29.89 in 10.0 mi South 3.5 mph - N/A   Clear
7:51 PM 84.9 °F 88.2 °F 68.0 °F 57% 29.89 in 10.0 mi Calm Calm - N/A   Clear
8:51 PM 82.0 °F 84.5 °F 66.9 °F 60% 29.88 in 10.0 mi Calm Calm - N/A   Clear
9:51 PM 75.9 °F - 70.0 °F 82% 29.90 in 10.0 mi SE 3.5 mph - N/A   Clear
10:51 PM 75.0 °F - 70.0 °F 84% 29.90 in 10.0 mi Calm Calm - N/A   Clear
11:51 PM 73.0 °F - 71.1 °F 93% 29.88 in 7.0 mi Calm Calm - N/A   Clear